{"data":{"norad_id":49414,"epoch":"2026-09-19T19:07:50.815488Z","epoch_age_seconds":101997,"freshness":"FRESH","line1":"1 49414U 21104G   26262.79711592  .00000058  00000+0  13111-4 0  9992","line2":"2 49414  53.1597  65.1416 0001296  78.4313 281.6835 15.33549790268107","mean_motion":15.3354979,"eccentricity":0.0001296,"inclination_deg":53.1597,"raan_deg":65.1416,"arg_perigee_deg":78.4313,"mean_anomaly_deg":281.6835,"bstar":1.3111e-5,"rev_number":26810,"period_min":93.89978789016,"perigee_km":464.34451037203,"apogee_km":466.11831146414,"semimajor_km":6843.3684109181,"source":"CELESTRAK","updated_at":"2026-09-20T09:00:39.256081Z"}}